This is the latest recevied weather packets stored in our database for station/object W0VI. If no packets are shown the sender has not sent any weather packets the latest 10 day(s).
| Time | Temp. | Humidity | Pressure | Rain* | Wind** | Luminosity | Snow |
|---|---|---|---|---|---|---|---|
| 1777656727 | 10.56° C | 38% | 1019.5 hPa | 0 mm | - | 246 W/m² | - |
| 1777656423 | 9.44° C | 38% | 1019.3 hPa | 0 mm | - | 724 W/m² | - |
| 1777656118 | 9.44° C | 41% | 1019.5 hPa | 0 mm | - | 217 W/m² | - |
| 1777655814 | 8.89° C | 40% | 1019.3 hPa | 0 mm | - | 390 W/m² | - |
| 1777655511 | 8.89° C | 41% | 1019.4 hPa | 0 mm | - | 332 W/m² | - |
| 1777655208 | 8.89° C | 40% | 1019.4 hPa | 0 mm | - | 206 W/m² | - |
| 1777654905 | 9.44° C | 41% | 1019.6 hPa | 0 mm | - | 157 W/m² | - |
| 1777654603 | 9.44° C | 40% | 1019.4 hPa | 0 mm | - | 771 W/m² | - |
| 1777654299 | 8.89° C | 40% | 1019.4 hPa | 0 mm | - | 178 W/m² | - |
| 1777653998 | 8.89° C | 40% | 1019.3 hPa | 0 mm | - | 233 W/m² | - |
| 1777653694 | 8.89° C | 39% | 1019.6 hPa | 0 mm | - | 874 W/m² | - |
| 1777653391 | 9.44° C | 39% | 1019.6 hPa | 0 mm | - | 228 W/m² | - |
| 1777653087 | 9.44° C | 41% | 1019.5 hPa | 0 mm | - | 679 W/m² | - |
| 1777652778 | 10° C | 39% | 1019.4 hPa | 0 mm | - | 868 W/m² | - |
| 1777652475 | 8.89° C | 41% | 1019.4 hPa | 0 mm | - | 831 W/m² | - |
| 1777652172 | 9.44° C | 41% | 1019.4 hPa | 0 mm | - | 852 W/m² | - |
| 1777651863 | 8.89° C | 39% | 1019.5 hPa | 0 mm | - | 792 W/m² | - |
| 1777651560 | 7.78° C | 41% | 1019.5 hPa | 0 mm | - | 772 W/m² | - |
| 1777651257 | 8.89° C | 41% | 1019.6 hPa | 0 mm | - | 226 W/m² | - |
| 1777650953 | 9.44° C | 41% | 1019.5 hPa | 0 mm | - | 784 W/m² | - |
| 1777650651 | 9.44° C | 42% | 1019.4 hPa | 0 mm | - | 810 W/m² | - |
| 1777650348 | 8.89° C | 39% | 1019.5 hPa | 0 mm | - | 711 W/m² | - |
| 1777650045 | 9.44° C | 41% | 1019.3 hPa | 0 mm | - | 685 W/m² | - |
| 1777649742 | 8.33° C | 42% | 1019.4 hPa | 0 mm | - | 686 W/m² | - |
| 1777649439 | 8.33° C | 42% | 1019.6 hPa | 0 mm | - | 666 W/m² | - |
* Rain latest hour (hover to see other rain measurements)
** Current wind speed in m/s (hover to see current wind gust speed)